Regional Weather Roundup
Issued by NWS

Home | Current Version | Previous Version | Text Only | Print | Product List | Glossary On
Versions: 1 2 3 4 5 6 7 8 9 10 11 12 13 14 15 16 17 18 19 20 21 22 23 24 25 26 27 28 29 30 31 32 33 34 35 36 37 38 39 40 41 42 43 44 45 46 47 48 49 50
000
ASUS43 KLSX 030659
RWRMO

WEATHER SUMMARY FOR MISSOURI
NATIONAL WEATHER SERVICE SPRINGFIELD MO
200 AM CDT WED SEP 03 2014

NOTE: "FAIR" INDICATES FEW OR NO CLOUDS BELOW 12,000 FEET WITH NO
       SIGNIFICANT WEATHER AND/OR OBSTRUCTIONS TO VISIBILITY.
       CURRENT SKY AND/OR WEATHER CONDITIONS ARE NOT AVAILABLE FOR
       CHILLICOTHE AND FARMINGTON.

MOZ001>031-035>038-043-044-053-054-030800-
...NORTHERN AND WESTERN MISSOURI...

CITY           SKY/WX    TMP DP  RH WIND       PRES   REMARKS
KANSAS CTY INT CLEAR     70  68  93 SE7       29.96F
KANSAS C DTWN  CLEAR     74  68  81 SE7       29.96F
LEE`S SUMMIT   CLEAR     71  68  90 SE6       29.98F
ST JOSEPH      CLEAR     70  67  90 S8        29.95F
KIRKSVILLE     CLEAR     65  63  93 CALM      30.00F

$$
MOZ066>068-077>081-088>096-101>105-030800-
...SOUTHWEST MISSOURI...

CITY           SKY/WX    TMP DP  RH WIND       PRES   REMARKS
SPRINGFIELD    PTCLDY    70  66  87 SE9       30.03S
JOPLIN         MOCLDY    73  68  84 SE10      29.99F

$$
MOZ032>034-039>042-045>050-055>058-069>072-030800-
...CENTRAL MISSOURI...

CITY           SKY/WX    TMP DP  RH WIND       PRES   REMARKS
COLUMBIA       CLEAR     66  66 100 S6        30.02S FOG
JEFFERSON CITY CLEAR     68  66  93 SE5       30.01F
ROLLA          CLEAR     63  62  97 SW7       30.03F
SEDALIA        CLEAR     67  64  90 S8        30.01F FOG
OSAGE BEACH    CLEAR     66  64  94 S3        30.03S

$$
MOZ051-052-059>065-030800-
...EAST CENTRAL MISSOURI...

CITY           SKY/WX    TMP DP  RH WIND       PRES   REMARKS
ST LOUIS INTL  CLEAR     71  68  90 CALM      30.01F
SPIRIT OF STL  FOG       65  64  97 CALM      30.00S VSB 1/4
ST CHARLES     FOG       65  65 100 CALM      29.99F VSB 3/4

$$
MOZ072>076-082>087-097>100-106>115-030800-
...SOUTH CENTRAL AND SOUTHEAST MISSOURI...

CITY           SKY/WX    TMP DP  RH WIND       PRES   REMARKS
CAPE GIRARDEAU FOG       66  65  96 CALM      30.00F VSB 1/4
FARMINGTON     CLEAR     63  61  94 CALM      30.05S
POPLAR BLUFF   CLEAR     68  64  87 N3        30.00F
WEST PLAINS    CLEAR     64  32  30 CALM      30.06F FOG

$$


USA.gov is the U.S. government's official web portal to all federal, state and local government web resources and services.